NOAA 16 DEB, 41156

Orbit data source: Space-Track

NOAA 16 DEB, 41156 is space debris in SSO originally from a launch on Thu, 21 Sep 2000 UTC launched from the Air Force Western Test Range (AFWTR). Debris objects in space refer to the collection of defunct objects orbiting the Earth. Examples of debris include non-operational satellites, rocket bodies, and fragments generated from explosions, collisions, or faulty payload assembly.

Loading next visibility...
Identifier
41156, 2000-055CP
Orbit
SSO
Country
Flag of USUS
Related business
Manufacturer
Unknown
Mission
Spacecraft
Bus & Motor
Unknown
Mass
Unknown
Launch date (UTC)
2000-09-21 (26 years ago)
Launch vehicle
Unknown
Launch site
Air Force Western Test Range (AFWTR)
Object type
Payload
Rocket body
Debris
Shape & HBR
Unknown shape, 0.1 m
Radar Cross Section
Medium (>0.1 m² and <1 m²)

Expand to show TLE details & history
Last TLE update: 13 hours ago

TLE from 13 hours ago
0 NOAA 16 DEB
1 41156U 00055CP  26235.71383257  .00027998  00000-0  30418-2 0  9994
2 41156  98.9324 152.5147 0025720  87.3136 273.1020 14.87818532562806
Epoch: 2026-08-23T17:07Z
TLE epoch observation values (Epoch: 2026-08-23T17:07:55.134Z)
Latitude
-0.00005°
Longitude
-76.47095°
Altitude
606.826 km
Speed
7.556 km/s
True Right ascension
10h 10m 03s
True Declination
0° 00' 00"
Sunlit
Object was in daylight at epoch
Visualization orbit readout
Latitude
Unknown
Longitude
Unknown
Altitude
Unknown
Speed
Unknown
Apparent Right ascension
Unknown
Apparent Declination
Unknown
Sunlit
N/A
Visualization observer readout
Local Sidereal Time
21:08:36
Azimuth
Unknown
Elevation
Unknown
Doppler factor
Unknown
Orbital elements
Apogee altitude
619.785 km
Perigee altitude
583.88 km
Semi-major axis
6,979.97 km
Eccentricity
0.00257
Inclination
98.9324°
RAAN
152.5147°
Arg. of periapsis
87.3136°
True anomaly
272.80765°
Mean anomaly
273.102°
Eccentric anomaly
272.95483°
Mean motion
3.72188 °/min
Orbital period
96.73 mins
BSTAR
0.0030418
Loading maneuver chart data...
Computing Atmospheric mass density...
Loading historical data...
Loading historical data...
Loading historical data...
Loading historical data...
Loading historical data...
Loading historical data...
Loading historical data...

Documentation

Showing up to 5 results
|